KAR774 USRR-UWKD

Flight info

Callsign KAR774
Flight time 2h 18m
Altitude 36000
Route ANIKI1W ANIKI T764 AKERA N992 KUMEP T796 ORTIM ORTIM1R
Aircraft E190/M-SDE3GILORVW/S

Departure

Time 2026-04-23 13:26
Airport Surgut International Airport (USRR)

Arrival

Time 2026-04-23 15:45
Airport Kazan International Airport (UWKD)
Time Latitude Longitude Altitude Speed Heading
2026-04-23 13:12 61.34141 73.41208 206 ft 0 kts 270°
2026-04-23 13:18 61.34141 73.41209 206 ft 0 kts 270°
2026-04-23 13:22 61.34141 73.41204 206 ft 2 kts 270°
2026-04-23 13:23 61.34153 73.41164 210 ft 6 kts 324°
2026-04-23 13:23 61.34177 73.41210 206 ft 8 kts 67°
2026-04-23 13:23 61.34185 73.41372 215 ft 12 kts 88°
2026-04-23 13:23 61.34186 73.41557 210 ft 13 kts 89°
2026-04-23 13:24 61.34188 73.41757 214 ft 15 kts 89°
2026-04-23 13:24 61.34189 73.41976 213 ft 16 kts 89°
2026-04-23 13:24 61.34190 73.42211 206 ft 17 kts 89°
2026-04-23 13:24 61.34210 73.42449 214 ft 17 kts 51°
2026-04-23 13:25 61.34313 73.42591 211 ft 20 kts 31°
2026-04-23 13:25 61.34395 73.42577 206 ft 12 kts 283°
2026-04-23 13:25 61.34395 73.42497 201 ft 0 kts 269°
2026-04-23 13:25 61.34394 73.42188 201 ft 49 kts 269°
2026-04-23 13:26 61.34390 73.41091 211 ft 100 kts 269°
2026-04-23 13:26 61.34384 73.39293 209 ft 145 kts 269°
2026-04-23 13:26 61.34366 73.37121 550 ft 151 kts 268°
2026-04-23 13:26 61.34343 73.34986 1198 ft 147 kts 267°
2026-04-23 13:27 61.34126 73.32596 1422 ft 188 kts 248°
2026-04-23 13:27 61.33529 73.29975 2134 ft 206 kts 242°
2026-04-23 13:27 61.32852 73.27270 3068 ft 209 kts 243°
2026-04-23 13:27 61.32195 73.24521 3446 ft 223 kts 244°
2026-04-23 13:28 61.31496 73.21485 3721 ft 241 kts 245°
2026-04-23 13:28 61.30773 73.18275 4151 ft 248 kts 245°
2026-04-23 13:28 61.30041 73.15022 4739 ft 250 kts 245°
2026-04-23 13:28 61.29308 73.11748 5325 ft 251 kts 244°
2026-04-23 13:29 61.28554 73.08488 5878 ft 251 kts 244°
2026-04-23 13:29 61.27807 73.05182 6403 ft 252 kts 245°
2026-04-23 13:29 61.27070 73.01864 6902 ft 254 kts 245°
2026-04-23 13:29 61.26323 72.98515 7376 ft 256 kts 245°
2026-04-23 13:30 61.25595 72.95288 7807 ft 259 kts 244°
2026-04-23 13:30 61.24810 72.91814 8277 ft 261 kts 244°
2026-04-23 13:30 61.24036 72.88388 8672 ft 262 kts 244°
2026-04-23 13:30 61.23226 72.84963 9167 ft 265 kts 243°
2026-04-23 13:31 61.22428 72.81501 9641 ft 266 kts 244°
2026-04-23 13:31 61.21626 72.78025 10209 ft 268 kts 244°
2026-04-23 13:31 61.20800 72.74430 10356 ft 283 kts 244°
2026-04-23 13:31 61.19957 72.70742 10705 ft 289 kts 244°
2026-04-23 13:32 61.19091 72.66985 11235 ft 288 kts 244°
2026-04-23 13:32 61.18222 72.63220 11734 ft 290 kts 244°
2026-04-23 13:32 61.17358 72.59457 12274 ft 289 kts 244°
2026-04-23 13:32 61.16487 72.55706 12746 ft 290 kts 244°
2026-04-23 13:33 61.15605 72.51932 13193 ft 292 kts 243°
2026-04-23 13:33 61.14718 72.48143 13629 ft 293 kts 243°
2026-04-23 13:33 61.13826 72.44337 14073 ft 294 kts 243°
2026-04-23 13:33 61.12927 72.40501 14495 ft 296 kts 243°
2026-04-23 13:34 61.12026 72.36671 14941 ft 297 kts 243°
2026-04-23 13:34 61.11118 72.32818 15368 ft 298 kts 243°
2026-04-23 13:34 61.10204 72.28949 15771 ft 300 kts 243°
2026-04-23 13:34 61.09283 72.25077 16198 ft 300 kts 242°
2026-04-23 13:35 61.08359 72.21185 16588 ft 303 kts 243°
2026-04-23 13:35 61.07429 72.17260 16998 ft 304 kts 243°
2026-04-23 13:35 61.06495 72.13333 17417 ft 305 kts 243°
2026-04-23 13:35 61.05533 72.09436 17780 ft 307 kts 240°
2026-04-23 13:36 61.04558 72.05495 18266 ft 309 kts 242°
2026-04-23 13:36 61.03617 72.01511 18675 ft 310 kts 243°
2026-04-23 13:36 61.02678 71.97498 19107 ft 311 kts 243°
2026-04-23 13:36 61.01728 71.93483 19492 ft 312 kts 243°
2026-04-23 13:37 61.00766 71.89458 19857 ft 314 kts 243°
2026-04-23 13:37 60.99790 71.85421 20259 ft 316 kts 242°
2026-04-23 13:37 60.98765 71.81411 20625 ft 317 kts 241°
2026-04-23 13:37 60.97703 71.77398 20976 ft 319 kts 241°
2026-04-23 13:38 60.96643 71.73373 21314 ft 321 kts 241°
2026-04-23 13:38 60.95580 71.69323 21683 ft 322 kts 241°
2026-04-23 13:38 60.94514 71.65264 22066 ft 323 kts 241°
2026-04-23 13:38 60.93448 71.61188 22398 ft 325 kts 241°
2026-04-23 13:39 60.92389 71.57139 22710 ft 326 kts 241°
2026-04-23 13:39 60.91310 71.53025 23044 ft 328 kts 241°
2026-04-23 13:39 60.90225 71.48901 23355 ft 329 kts 241°
2026-04-23 13:39 60.89129 71.44757 23681 ft 330 kts 241°
2026-04-23 13:40 60.88029 71.40591 23982 ft 332 kts 241°
2026-04-23 13:40 60.86926 71.36415 24264 ft 334 kts 241°
2026-04-23 13:40 60.85813 71.32213 24533 ft 336 kts 241°
2026-04-23 13:40 60.84690 71.27986 24790 ft 338 kts 241°
2026-04-23 13:41 60.83559 71.23749 25063 ft 340 kts 241°
2026-04-23 13:41 60.82418 71.19476 25295 ft 343 kts 241°
2026-04-23 13:41 60.81265 71.15168 25565 ft 344 kts 241°
2026-04-23 13:41 60.80108 71.10852 25800 ft 347 kts 241°
2026-04-23 13:42 60.78944 71.06520 26041 ft 349 kts 241°
2026-04-23 13:42 60.77788 71.02217 26284 ft 350 kts 241°
2026-04-23 13:42 60.76606 70.97842 26492 ft 353 kts 241°
2026-04-23 13:42 60.75417 70.93445 26725 ft 354 kts 241°
2026-04-23 13:43 60.74219 70.89017 26934 ft 357 kts 241°
2026-04-23 13:43 60.73012 70.84569 27184 ft 358 kts 241°
2026-04-23 13:43 60.72195 70.81560 27345 ft 359 kts 241°
2026-04-23 13:43 60.70990 70.77138 27557 ft 362 kts 241°
2026-04-23 13:44 60.69766 70.72645 27768 ft 363 kts 240°
2026-04-23 13:44 60.68533 70.68130 27998 ft 365 kts 240°
2026-04-23 13:44 60.67291 70.63590 28191 ft 367 kts 241°
2026-04-23 13:44 60.66045 70.59049 28407 ft 368 kts 240°
2026-04-23 13:45 60.64785 70.54475 28628 ft 370 kts 240°
2026-04-23 13:45 60.63519 70.49889 28811 ft 372 kts 240°
2026-04-23 13:45 60.62227 70.45310 29015 ft 374 kts 238°
2026-04-23 13:45 60.60808 70.40871 29227 ft 375 kts 237°
2026-04-23 13:46 60.59354 70.36444 29400 ft 377 kts 237°
2026-04-23 13:46 60.57903 70.31972 29584 ft 379 kts 237°
2026-04-23 13:46 60.56454 70.27476 29769 ft 380 kts 237°
2026-04-23 13:46 60.55006 70.22967 29973 ft 381 kts 237°
2026-04-23 13:47 60.53572 70.18496 30169 ft 383 kts 237°
2026-04-23 13:47 60.52114 70.13958 30350 ft 384 kts 237°
2026-04-23 13:47 60.50645 70.09395 30535 ft 386 kts 237°
2026-04-23 13:47 60.49171 70.04828 30703 ft 388 kts 237°
2026-04-23 13:48 60.47686 70.00244 30873 ft 389 kts 237°
2026-04-23 13:48 60.46192 69.95638 31015 ft 391 kts 237°
2026-04-23 13:48 60.44691 69.91018 31168 ft 393 kts 237°
2026-04-23 13:48 60.43182 69.86377 31327 ft 395 kts 237°
2026-04-23 13:49 60.41666 69.81728 31484 ft 396 kts 237°
2026-04-23 13:49 60.40164 69.77130 31635 ft 397 kts 237°
2026-04-23 13:49 60.38637 69.72464 31793 ft 398 kts 237°
2026-04-23 13:49 60.37098 69.67772 31954 ft 399 kts 237°
2026-04-23 13:50 60.35565 69.63104 32160 ft 399 kts 237°
2026-04-23 13:50 60.34024 69.58438 32350 ft 399 kts 236°
2026-04-23 13:50 60.32475 69.53783 32544 ft 399 kts 236°
2026-04-23 13:50 60.30928 69.49144 32720 ft 399 kts 236°
2026-04-23 13:51 60.29372 69.44483 32860 ft 400 kts 236°
2026-04-23 13:51 60.27813 69.39822 33029 ft 401 kts 236°
2026-04-23 13:51 60.26274 69.35224 33216 ft 401 kts 236°
2026-04-23 13:51 60.24710 69.30561 33393 ft 400 kts 236°
2026-04-23 13:52 60.23142 69.25900 33567 ft 400 kts 236°
2026-04-23 13:52 60.21590 69.21299 33708 ft 401 kts 236°
2026-04-23 13:52 60.20018 69.16642 33842 ft 402 kts 236°
2026-04-23 13:52 60.18449 69.12002 34001 ft 402 kts 236°
2026-04-23 13:53 60.16875 69.07357 34160 ft 402 kts 236°
2026-04-23 13:53 60.15297 69.02715 34325 ft 402 kts 236°
2026-04-23 13:53 60.13718 68.98078 34434 ft 402 kts 236°
2026-04-23 13:53 60.12152 68.93489 34583 ft 403 kts 236°
2026-04-23 13:54 60.10561 68.88834 34740 ft 403 kts 236°
2026-04-23 13:54 60.08977 68.84201 34880 ft 403 kts 236°
2026-04-23 13:54 60.07383 68.79548 35005 ft 404 kts 236°
2026-04-23 13:55 60.04209 68.70331 35220 ft 404 kts 236°
2026-04-23 13:55 60.02604 68.65677 35346 ft 404 kts 236°
2026-04-23 13:55 60.01017 68.61084 35473 ft 404 kts 236°
2026-04-23 13:55 59.99410 68.56442 35742 ft 399 kts 235°
2026-04-23 13:56 59.97839 68.51914 35801 ft 402 kts 235°
2026-04-23 13:56 59.94630 68.42688 35647 ft 411 kts 235°
2026-04-23 13:57 59.91330 68.33247 35679 ft 416 kts 235°
2026-04-23 13:57 59.87982 68.23719 35672 ft 421 kts 235°
2026-04-23 13:58 59.84616 68.14172 35670 ft 426 kts 235°
2026-04-23 13:58 59.81190 68.04490 35674 ft 428 kts 235°
2026-04-23 13:59 59.77748 67.94796 35675 ft 428 kts 235°
2026-04-23 13:59 59.74313 67.85171 35672 ft 428 kts 235°
2026-04-23 14:00 59.71434 67.77143 35674 ft 428 kts 235°
2026-04-23 14:00 59.67410 67.65943 35671 ft 429 kts 234°
2026-04-23 14:01 59.63959 67.56391 35673 ft 428 kts 234°
2026-04-23 14:01 59.60490 67.46821 35675 ft 428 kts 234°
2026-04-23 14:02 59.57002 67.37248 35674 ft 428 kts 234°
2026-04-23 14:02 59.53538 67.27759 35684 ft 428 kts 234°
2026-04-23 14:03 59.50037 67.18224 35685 ft 428 kts 234°
2026-04-23 14:03 59.46520 67.08701 35686 ft 429 kts 234°
2026-04-23 14:04 59.43033 66.99268 35684 ft 429 kts 234°
2026-04-23 14:04 59.39513 66.89787 35685 ft 429 kts 234°
2026-04-23 14:05 59.36008 66.80388 35684 ft 429 kts 234°
2026-04-23 14:05 59.32542 66.70860 35682 ft 429 kts 235°
2026-04-23 14:06 59.29108 66.61366 35686 ft 428 kts 235°
2026-04-23 14:06 59.25641 66.51864 35685 ft 429 kts 234°
2026-04-23 14:07 59.22165 66.42381 35685 ft 429 kts 234°
2026-04-23 14:07 59.16962 66.28265 35684 ft 429 kts 234°
2026-04-23 14:08 59.13464 66.18806 35684 ft 428 kts 234°
2026-04-23 14:08 59.09983 66.09443 35684 ft 429 kts 234°
2026-04-23 14:09 59.06477 66.00043 35685 ft 429 kts 234°
2026-04-23 14:09 59.02959 65.90653 35686 ft 430 kts 234°
2026-04-23 14:10 58.99439 65.81293 35683 ft 429 kts 234°
2026-04-23 14:10 58.95932 65.72012 35699 ft 429 kts 234°
2026-04-23 14:11 58.92393 65.62682 35692 ft 429 kts 234°
2026-04-23 14:11 58.88876 65.53436 35694 ft 429 kts 234°
2026-04-23 14:12 58.85332 65.44152 35696 ft 429 kts 234°
2026-04-23 14:12 58.81775 65.34879 35694 ft 429 kts 234°
2026-04-23 14:13 58.78233 65.25686 35662 ft 429 kts 234°
2026-04-23 14:13 58.74668 65.16460 35668 ft 428 kts 234°
2026-04-23 14:14 58.71092 65.07247 35666 ft 428 kts 233°
2026-04-23 14:14 58.67551 64.98145 35667 ft 427 kts 233°
2026-04-23 14:15 58.63975 64.88991 35666 ft 428 kts 233°
2026-04-23 14:15 58.60396 64.79860 35664 ft 428 kts 233°
2026-04-23 14:16 58.56773 64.70850 35663 ft 429 kts 232°
2026-04-23 14:16 58.53106 64.61816 35668 ft 428 kts 232°
2026-04-23 14:17 58.49455 64.52822 35665 ft 427 kts 233°
2026-04-23 14:17 58.45823 64.43868 35667 ft 427 kts 232°
2026-04-23 14:18 58.42158 64.34889 35667 ft 427 kts 232°
2026-04-23 14:18 58.38507 64.25976 35666 ft 426 kts 232°
2026-04-23 14:19 58.34849 64.17080 35668 ft 426 kts 232°
2026-04-23 14:19 58.31200 64.08245 35664 ft 426 kts 232°
2026-04-23 14:20 58.27540 63.99409 35667 ft 426 kts 232°
2026-04-23 14:20 58.23741 63.90728 35653 ft 427 kts 230°
2026-04-23 14:21 58.19899 63.82209 35655 ft 426 kts 230°
2026-04-23 14:21 58.16051 63.73624 35658 ft 427 kts 230°
2026-04-23 14:22 58.12218 63.65093 35658 ft 426 kts 230°
2026-04-23 14:22 58.08369 63.56491 35658 ft 426 kts 231°
2026-04-23 14:23 58.04596 63.47901 35656 ft 427 kts 231°
2026-04-23 14:23 58.00794 63.39294 35656 ft 428 kts 231°
2026-04-23 14:24 57.96971 63.30692 35645 ft 425 kts 231°
2026-04-23 14:24 57.93178 63.22177 35649 ft 425 kts 230°
2026-04-23 14:25 57.89367 63.13663 35648 ft 425 kts 230°
2026-04-23 14:25 57.86189 63.06584 35650 ft 425 kts 230°
2026-04-23 14:26 57.83168 62.99872 35647 ft 425 kts 230°
2026-04-23 14:26 57.79344 62.91401 35637 ft 425 kts 230°
2026-04-23 14:27 57.75505 62.82936 35636 ft 426 kts 230°
2026-04-23 14:27 57.72179 62.73857 35654 ft 427 kts 249°
2026-04-23 14:28 57.70969 62.62956 35594 ft 431 kts 258°
2026-04-23 14:28 57.70015 62.51961 35614 ft 430 kts 259°
2026-04-23 14:29 57.69068 62.40893 35608 ft 430 kts 259°
2026-04-23 14:29 57.68118 62.29841 35608 ft 431 kts 259°
2026-04-23 14:30 57.67164 62.18800 35617 ft 431 kts 259°
2026-04-23 14:30 57.66200 62.07785 35616 ft 431 kts 259°
2026-04-23 14:31 57.65383 61.98586 35609 ft 431 kts 259°
2026-04-23 14:31 57.64227 61.85720 35611 ft 431 kts 258°
2026-04-23 14:32 57.63391 61.76516 35611 ft 431 kts 258°
2026-04-23 14:32 57.62376 61.65522 35599 ft 431 kts 258°
2026-04-23 14:33 57.61350 61.54519 35600 ft 431 kts 258°
2026-04-23 14:33 57.60318 61.43533 35587 ft 430 kts 258°
2026-04-23 14:34 57.59271 61.32519 35595 ft 430 kts 258°
2026-04-23 14:34 57.58221 61.21579 35591 ft 430 kts 258°
2026-04-23 14:35 57.57159 61.10619 35591 ft 430 kts 258°
2026-04-23 14:35 57.56333 61.02140 35591 ft 430 kts 258°
2026-04-23 14:36 57.55252 60.91142 35592 ft 430 kts 258°
2026-04-23 14:36 57.54168 60.80232 35592 ft 430 kts 257°
2026-04-23 14:37 57.53073 60.69297 35589 ft 430 kts 257°
2026-04-23 14:37 57.51962 60.58359 35581 ft 431 kts 257°
2026-04-23 14:38 57.50813 60.47388 35581 ft 431 kts 257°
2026-04-23 14:38 57.49653 60.36443 35583 ft 431 kts 257°
2026-04-23 14:39 57.48492 60.25523 35597 ft 431 kts 257°
2026-04-23 14:39 57.47319 60.14593 35591 ft 432 kts 257°
2026-04-23 14:40 57.46135 60.03654 35592 ft 432 kts 257°
2026-04-23 14:40 57.44938 59.92696 35595 ft 433 kts 256°
2026-04-23 14:41 57.43732 59.81753 35591 ft 432 kts 256°
2026-04-23 14:41 57.42512 59.70777 35589 ft 433 kts 256°
2026-04-23 14:42 57.41293 59.59880 35589 ft 432 kts 256°
2026-04-23 14:42 57.40059 59.48947 35593 ft 433 kts 256°
2026-04-23 14:43 57.38818 59.38066 35592 ft 433 kts 256°
2026-04-23 14:43 57.37563 59.27129 35593 ft 434 kts 256°
2026-04-23 14:44 57.36290 59.16155 35591 ft 434 kts 256°
2026-04-23 14:44 57.35024 59.05270 35590 ft 434 kts 256°
2026-04-23 14:45 57.33739 58.94349 35594 ft 434 kts 256°
2026-04-23 14:45 57.32440 58.83391 35589 ft 434 kts 256°
2026-04-23 14:46 57.31146 58.72535 35591 ft 434 kts 255°
2026-04-23 14:46 57.29829 58.61589 35592 ft 435 kts 255°
2026-04-23 14:47 57.28508 58.50681 35593 ft 435 kts 255°
2026-04-23 14:47 57.27171 58.39781 35591 ft 435 kts 255°
2026-04-23 14:48 57.25842 58.28894 35591 ft 436 kts 255°
2026-04-23 14:48 57.24489 58.17912 35592 ft 436 kts 255°
2026-04-23 14:49 57.23115 58.07044 35590 ft 437 kts 255°
2026-04-23 14:49 57.21748 57.96135 35589 ft 437 kts 255°
2026-04-23 14:50 57.20371 57.85186 35590 ft 438 kts 255°
2026-04-23 14:50 57.18988 57.74228 35590 ft 438 kts 255°
2026-04-23 14:51 57.17603 57.63339 35591 ft 438 kts 255°
2026-04-23 14:51 57.16206 57.52447 35589 ft 438 kts 255°
2026-04-23 14:52 57.14792 57.41490 35589 ft 438 kts 255°
2026-04-23 14:52 57.13380 57.30659 35593 ft 437 kts 255°
2026-04-23 14:53 57.11953 57.19779 35593 ft 439 kts 255°
2026-04-23 14:53 57.10513 57.08885 35589 ft 438 kts 255°
2026-04-23 14:54 57.09065 56.98002 35592 ft 438 kts 254°
2026-04-23 14:54 57.07600 56.87075 35590 ft 438 kts 254°
2026-04-23 14:55 57.06139 56.76244 35590 ft 438 kts 254°
2026-04-23 14:55 57.04663 56.65399 35590 ft 439 kts 254°
2026-04-23 14:56 57.02682 56.54848 35599 ft 438 kts 246°
2026-04-23 14:56 57.00324 56.44535 35598 ft 437 kts 246°
2026-04-23 14:57 56.97956 56.34219 35601 ft 438 kts 246°
2026-04-23 14:57 56.95602 56.23992 35600 ft 437 kts 246°
2026-04-23 14:58 56.93217 56.13670 35588 ft 437 kts 246°
2026-04-23 14:58 56.90843 56.03448 35591 ft 438 kts 246°
2026-04-23 14:59 56.88460 55.93241 35591 ft 438 kts 246°
2026-04-23 14:59 56.86073 55.82944 35579 ft 439 kts 246°
2026-04-23 15:00 56.83730 55.72669 35582 ft 438 kts 246°
2026-04-23 15:00 56.81365 55.62400 35583 ft 439 kts 246°
2026-04-23 15:01 56.78990 55.52159 35580 ft 438 kts 246°
2026-04-23 15:01 56.76608 55.41925 35583 ft 438 kts 246°
2026-04-23 15:02 56.74215 55.31691 35579 ft 439 kts 246°
2026-04-23 15:02 56.71822 55.21518 35584 ft 438 kts 246°
2026-04-23 15:03 56.69421 55.11336 35579 ft 438 kts 246°
2026-04-23 15:03 56.67006 55.01169 35582 ft 438 kts 245°
2026-04-23 15:04 56.64586 54.91026 35586 ft 438 kts 245°
2026-04-23 15:04 56.62153 54.80867 35580 ft 438 kts 245°
2026-04-23 15:05 56.59709 54.70698 35586 ft 438 kts 245°
2026-04-23 15:05 56.57261 54.60568 35577 ft 440 kts 246°
2026-04-23 15:06 56.54805 54.50455 35582 ft 439 kts 246°
2026-04-23 15:06 56.52534 54.41132 35582 ft 438 kts 246°
2026-04-23 15:07 56.50157 54.31412 35581 ft 438 kts 246°
2026-04-23 15:07 56.48055 54.22903 35584 ft 438 kts 245°
2026-04-23 15:08 56.45623 54.13106 35580 ft 437 kts 245°
2026-04-23 15:09 56.41922 53.98233 35584 ft 438 kts 245°
2026-04-23 15:09 56.39423 53.88223 35579 ft 438 kts 245°
2026-04-23 15:10 56.37333 53.79845 35583 ft 438 kts 245°
2026-04-23 15:10 56.34421 53.68227 35580 ft 438 kts 245°
2026-04-23 15:11 56.31891 53.58227 35582 ft 438 kts 245°
2026-04-23 15:11 56.29334 53.48327 35583 ft 438 kts 245°
2026-04-23 15:12 56.26757 53.38380 35580 ft 438 kts 245°
2026-04-23 15:12 56.24176 53.28449 35585 ft 438 kts 245°
2026-04-23 15:13 56.21584 53.18504 35581 ft 439 kts 245°
2026-04-23 15:13 56.18990 53.08608 35580 ft 439 kts 244°
2026-04-23 15:14 56.16397 52.98754 35584 ft 438 kts 244°
2026-04-23 15:14 56.13771 52.88804 35581 ft 440 kts 244°
2026-04-23 15:15 56.11149 52.78924 35580 ft 440 kts 244°
2026-04-23 15:15 56.08514 52.69042 35583 ft 439 kts 244°
2026-04-23 15:16 56.05874 52.59199 35582 ft 439 kts 244°
2026-04-23 15:16 56.03257 52.49356 35582 ft 440 kts 244°
2026-04-23 15:17 56.00641 52.39545 35581 ft 438 kts 244°
2026-04-23 15:17 55.98004 52.29736 35580 ft 438 kts 244°
2026-04-23 15:18 55.95367 52.19958 35581 ft 438 kts 244°
2026-04-23 15:18 55.92701 52.10100 35581 ft 438 kts 244°
2026-04-23 15:19 55.90056 52.00383 35581 ft 438 kts 244°
2026-04-23 15:19 55.87390 51.90622 35580 ft 439 kts 244°
2026-04-23 15:19 55.86049 51.85732 35455 ft 438 kts 244°
2026-04-23 15:20 55.85164 51.82506 35121 ft 432 kts 244°
2026-04-23 15:20 55.83452 51.76280 34685 ft 416 kts 244°
2026-04-23 15:20 55.82179 51.71663 34098 ft 411 kts 244°
2026-04-23 15:20 55.80925 51.67125 33542 ft 405 kts 244°
2026-04-23 15:21 55.79699 51.62704 33033 ft 400 kts 244°
2026-04-23 15:21 55.78474 51.58288 32465 ft 395 kts 244°
2026-04-23 15:21 55.77265 51.53935 31985 ft 389 kts 245°
2026-04-23 15:21 55.76073 51.49646 31433 ft 385 kts 245°
2026-04-23 15:22 55.74899 51.45438 30959 ft 380 kts 245°
2026-04-23 15:22 55.73721 51.41227 30442 ft 382 kts 245°
2026-04-23 15:22 55.72543 51.36926 29942 ft 389 kts 248°
2026-04-23 15:22 55.71490 51.32461 29417 ft 393 kts 250°
2026-04-23 15:23 55.70486 51.27992 28861 ft 395 kts 250°
2026-04-23 15:23 55.69447 51.23450 28370 ft 395 kts 249°
2026-04-23 15:23 55.68752 51.20464 27988 ft 396 kts 249°
2026-04-23 15:23 55.67339 51.14477 27315 ft 396 kts 249°
2026-04-23 15:24 55.66616 51.11433 26933 ft 396 kts 249°
2026-04-23 15:24 55.65562 51.07011 26433 ft 392 kts 249°
2026-04-23 15:24 55.64500 51.02561 25904 ft 388 kts 249°
2026-04-23 15:24 55.63449 50.98164 25391 ft 384 kts 249°
2026-04-23 15:25 55.62419 50.93866 24890 ft 380 kts 249°
2026-04-23 15:25 55.61387 50.89564 24385 ft 378 kts 249°
2026-04-23 15:25 55.60361 50.85295 23871 ft 376 kts 249°
2026-04-23 15:25 55.59335 50.81038 23376 ft 373 kts 249°
2026-04-23 15:26 55.58334 50.76891 22885 ft 370 kts 249°
2026-04-23 15:26 55.57327 50.72729 22398 ft 366 kts 248°
2026-04-23 15:26 55.56328 50.68601 21916 ft 364 kts 248°
2026-04-23 15:26 55.55334 50.64510 21428 ft 360 kts 248°
2026-04-23 15:27 55.54350 50.60451 20956 ft 357 kts 248°
2026-04-23 15:27 55.53372 50.56432 20483 ft 355 kts 248°
2026-04-23 15:27 55.52398 50.52438 20013 ft 352 kts 248°
2026-04-23 15:27 55.51447 50.48552 19550 ft 350 kts 248°
2026-04-23 15:28 55.50476 50.44589 19077 ft 347 kts 248°
2026-04-23 15:28 55.49517 50.40679 18613 ft 344 kts 248°
2026-04-23 15:28 55.48577 50.36853 18163 ft 341 kts 248°
2026-04-23 15:28 55.47638 50.33018 17715 ft 338 kts 248°
2026-04-23 15:29 55.46701 50.29221 17261 ft 336 kts 247°
2026-04-23 15:29 55.45769 50.25454 16822 ft 333 kts 247°
2026-04-23 15:29 55.44843 50.21721 16368 ft 331 kts 247°
2026-04-23 15:29 55.43932 50.18046 15912 ft 328 kts 247°
2026-04-23 15:30 55.43018 50.14360 15495 ft 325 kts 247°
2026-04-23 15:30 55.42113 50.10719 15064 ft 323 kts 247°
2026-04-23 15:30 55.41221 50.07136 14641 ft 321 kts 247°
2026-04-23 15:30 55.40325 50.03543 14213 ft 316 kts 247°
2026-04-23 15:31 55.39479 50.00007 13712 ft 311 kts 253°
2026-04-23 15:31 55.39353 49.96276 13300 ft 305 kts 280°
2026-04-23 15:31 55.40139 49.92888 12958 ft 299 kts 296°
2026-04-23 15:31 55.41155 49.89728 12527 ft 295 kts 297°
2026-04-23 15:32 55.42170 49.86601 12149 ft 290 kts 297°
2026-04-23 15:32 55.43155 49.83571 11765 ft 285 kts 297°
2026-04-23 15:32 55.44135 49.80553 11399 ft 281 kts 297°
2026-04-23 15:32 55.45095 49.77560 11021 ft 278 kts 296°
2026-04-23 15:33 55.46036 49.74629 10648 ft 277 kts 296°
2026-04-23 15:33 55.46983 49.71673 10284 ft 277 kts 296°
2026-04-23 15:33 55.47931 49.68709 9926 ft 277 kts 296°
2026-04-23 15:33 55.48883 49.65753 9563 ft 278 kts 296°
2026-04-23 15:34 55.49839 49.62779 9190 ft 277 kts 296°
2026-04-23 15:34 55.50780 49.59845 8826 ft 277 kts 296°
2026-04-23 15:34 55.51725 49.56871 8457 ft 276 kts 296°
2026-04-23 15:34 55.52661 49.53927 8092 ft 274 kts 295°
2026-04-23 15:35 55.53599 49.50981 7732 ft 273 kts 295°
2026-04-23 15:35 55.54514 49.48092 7379 ft 272 kts 295°
2026-04-23 15:35 55.55444 49.45171 7020 ft 271 kts 295°
2026-04-23 15:35 55.56372 49.42280 6669 ft 269 kts 295°
2026-04-23 15:36 55.57276 49.39437 6310 ft 268 kts 295°
2026-04-23 15:36 55.58188 49.36539 5952 ft 267 kts 295°
2026-04-23 15:36 55.59048 49.33792 5782 ft 259 kts 295°
2026-04-23 15:36 55.59931 49.31020 5780 ft 263 kts 295°
2026-04-23 15:37 55.60844 49.28134 5409 ft 271 kts 295°
2026-04-23 15:37 55.61750 49.25254 5180 ft 265 kts 294°
2026-04-23 15:37 55.62284 49.22207 5004 ft 256 kts 272°
2026-04-23 15:37 55.62400 49.19049 4847 ft 258 kts 269°
2026-04-23 15:38 55.62453 49.15924 4805 ft 256 kts 268°
2026-04-23 15:38 55.62507 49.12748 4770 ft 258 kts 269°
2026-04-23 15:38 55.62570 49.09581 4679 ft 259 kts 269°
2026-04-23 15:38 55.62640 49.06386 4625 ft 258 kts 269°
2026-04-23 15:39 55.62706 49.03234 4492 ft 260 kts 269°
2026-04-23 15:39 55.62772 49.00005 4210 ft 262 kts 270°
2026-04-23 15:39 55.63235 48.96901 3902 ft 260 kts 298°
2026-04-23 15:39 55.64508 48.94830 3603 ft 250 kts 334°
2026-04-23 15:40 55.66194 48.94482 3322 ft 245 kts 13°
2026-04-23 15:40 55.67692 48.95775 3100 ft 241 kts 34°
2026-04-23 15:40 55.69039 48.97556 2825 ft 240 kts 42°
2026-04-23 15:40 55.69992 48.99817 2829 ft 219 kts 70°
2026-04-23 15:41 55.70205 49.02316 2816 ft 195 kts 101°
2026-04-23 15:41 55.69745 49.04490 2495 ft 189 kts 126°
2026-04-23 15:41 55.68954 49.06330 2131 ft 190 kts 131°
2026-04-23 15:41 55.68191 49.08183 1838 ft 176 kts 125°
2026-04-23 15:42 55.67606 49.09799 2056 ft 138 kts 127°
2026-04-23 15:42 55.67055 49.11191 2358 ft 146 kts 128°
2026-04-23 15:42 55.66478 49.12694 2387 ft 141 kts 128°
2026-04-23 15:42 55.65921 49.14227 2291 ft 154 kts 125°
2026-04-23 15:43 55.65339 49.15841 1922 ft 152 kts 127°
2026-04-23 15:43 55.64745 49.17304 1626 ft 146 kts 128°
2026-04-23 15:43 55.64181 49.18767 1332 ft 141 kts 124°
2026-04-23 15:43 55.63646 49.20164 1071 ft 138 kts 128°
2026-04-23 15:44 55.63090 49.21532 884 ft 136 kts 126°
2026-04-23 15:44 55.62559 49.22936 738 ft 138 kts 125°
2026-04-23 15:44 55.61994 49.24347 551 ft 142 kts 126°
2026-04-23 15:44 55.61443 49.25768 415 ft 134 kts 124°
2026-04-23 15:45 55.60984 49.26952 414 ft 93 kts 123°
2026-04-23 15:45 55.60678 49.27736 419 ft 61 kts 125°
2026-04-23 15:45 55.60501 49.28192 415 ft 38 kts 123°
2026-04-23 15:45 55.60390 49.28484 416 ft 12 kts 117°
2026-04-23 15:46 55.60416 49.28606 416 ft 12 kts 36°
2026-04-23 15:46 55.60494 49.28701 414 ft 15 kts 34°
2026-04-23 15:46 55.60576 49.28821 414 ft 15 kts 65°
2026-04-23 15:46 55.60570 49.29008 414 ft 15 kts 90°
2026-04-23 15:47 55.60614 49.29180 414 ft 16 kts 44°
2026-04-23 15:47 55.60706 49.29296 414 ft 15 kts 34°
2026-04-23 15:47 55.60732 49.29359 414 ft 7 kts 87°
2026-04-23 15:47 55.60695 49.29480 414 ft 13 kts 124°
2026-04-23 15:48 55.60653 49.29599 414 ft 9 kts 104°
2026-04-23 15:48 55.60678 49.29662 414 ft 4 kts 34°
2026-04-23 15:48 55.60681 49.29666 414 ft 0 kts 34°